| time (UTC) | temp F | wind direction | speed knots | gust knots | rain 1hr in | rain 24hr in | rain mn in | humidity % | barometer mb |
| 20260903020053 | 83 | 153 | 0.9 | 1.7 | 0.00 | 0.04 | 0.04 | 61 | 1010.4 |
| 20260903014559 | 83 | 155 | 0.0 | 0.9 | 0.00 | 0.04 | 0.04 | 61 | 1010.3 |
| 20260903013052 | 83 | 155 | 0.0 | 1.7 | 0.00 | 0.04 | 0.04 | 61 | 1010.2 |
| 20260903011551 | 84 | 155 | 0.0 | 0.0 | 0.00 | 0.04 | 0.04 | 60 | 1010.2 |
| 20260903010050 | 85 | 155 | 0.0 | 0.9 | 0.00 | 0.04 | 0.04 | 60 | 1009.8 |
| 20260903004549 | 86 | 155 | 0.0 | 0.9 | 0.00 | 0.04 | 0.04 | 57 | 1009.8 |
| 20260903003050 | 86 | 156 | 0.0 | 0.9 | 0.00 | 0.04 | 0.04 | 56 | 1009.9 |
| 20260903001551 | 86 | 156 | 0.0 | 2.6 | 0.00 | 0.04 | 0.04 | 56 | 1009.8 |
| 20260903000048 | 86 | 155 | 0.9 | 2.6 | 0.00 | 0.04 | 0.04 | 56 | 1010.0 |
| 20260902234547 | 87 | 155 | 0.9 | 5.2 | 0.00 | 0.04 | 0.04 | 55 | 1009.8 |
| 20260902233046 | 87 | 175 | 1.7 | 4.3 | 0.00 | 0.04 | 0.04 | 54 | 1009.9 |
| 20260902231545 | 87 | 151 | 1.7 | 6.1 | 0.00 | 0.04 | 0.04 | 54 | 1010.0 |
| 20260902230043 | 87 | 146 | 4.3 | 8.7 | 0.00 | 0.04 | 0.04 | 54 | 1010.1 |
| 20260902224544 | 88 | 144 | 1.7 | 5.2 | 0.00 | 0.04 | 0.04 | 53 | 1010.0 |
| 20260902223043 | 88 | 134 | 2.6 | 5.2 | 0.00 | 0.04 | 0.04 | 52 | 1010.0 |
| 20260902221543 | 88 | 149 | 0.9 | 6.1 | 0.00 | 0.04 | 0.04 | 53 | 1010.0 |
| 20260902220046 | 90 | 155 | 2.6 | 6.1 | 0.00 | 0.04 | 0.04 | 50 | 1010.1 |
| 20260902214539 | 89 | 107 | 0.9 | 6.1 | 0.00 | 0.04 | 0.04 | 50 | 1010.1 |
| 20260902213038 | 89 | 63 | 1.7 | 4.3 | 0.00 | 0.04 | 0.04 | 51 | 1010.3 |
| 20260902211543 | 90 | 94 | 0.9 | 3.5 | 0.00 | 0.04 | 0.04 | 50 | 1010.4 |
| 20260902204539 | 88 | 345 | 1.7 | 5.2 | 0.00 | 0.04 | 0.04 | 53 | 1010.4 |
| 20260902203030 | 88 | 116 | 0.9 | 4.3 | 0.00 | 0.04 | 0.04 | 53 | 1010.4 |
| 20260902201533 | 87 | 75 | 1.7 | 6.1 | 0.00 | 0.04 | 0.04 | 55 | 1010.7 |
| 20260902200027 | 87 | 186 | 1.7 | 5.2 | 0.00 | 0.04 | 0.04 | 54 | 1011.0 |
| 20260902194532 | 86 | 152 | 1.7 | 4.3 | 0.00 | 0.04 | 0.04 | 54 | 1011.2 |
| 20260902193023 | 87 | 150 | 0.9 | 4.3 | 0.00 | 0.04 | 0.04 | 53 | 1011.3 |
| 20260902191520 | 86 | 149 | 0.9 | 3.5 | 0.00 | 0.04 | 0.04 | 55 | 1011.5 |
| 20260902190019 | 84 | 162 | 3.5 | 8.7 | 0.00 | 0.04 | 0.04 | 55 | 1011.4 |
| 20260902184514 | 84 | 195 | 2.6 | 4.3 | 0.00 | 0.04 | 0.04 | 56 | 1011.3 |
| 20260902183012 | 84 | 9 | 1.7 | 5.2 | 0.00 | 0.04 | 0.04 | 56 | 1011.4 |
| 20260902181510 | 84 | 34 | 1.7 | 4.3 | 0.00 | 0.04 | 0.04 | 57 | 1011.5 |
| 20260902180008 | 84 | 75 | 1.7 | 4.3 | 0.00 | 0.04 | 0.04 | 57 | 1011.8 |
| 20260902174505 | 82 | 58 | 0.9 | 4.3 | 0.00 | 0.04 | 0.04 | 60 | 1011.9 |
| 20260902173002 | 82 | 34 | 0.9 | 3.5 | 0.00 | 0.04 | 0.04 | 62 | 1012.3 |
| 20260902171600 | 80 | 138 | 1.7 | 3.5 | 0.00 | 0.04 | 0.04 | 63 | 1012.6 |
| 20260902170101 | 77 | 170 | 2.6 | 5.2 | 0.00 | 0.04 | 0.04 | 66 | 1013.0 |
| 20260902164556 | 78 | 161 | 1.7 | 5.2 | 0.00 | 0.04 | 0.04 | 65 | 1012.6 |
| 20260902163056 | 79 | 176 | 1.7 | 4.3 | 0.00 | 0.04 | 0.04 | 64 | 1012.5 |
| 20260902161556 | 79 | 53 | 0.9 | 3.5 | 0.00 | 0.04 | 0.04 | 64 | 1012.5 |
| 20260902160054 | 77 | 34 | 0.9 | 4.3 | 0.00 | 0.04 | 0.04 | 66 | 1012.4 |
| 20260902154550 | 77 | 108 | 0.9 | 5.2 | 0.00 | 0.04 | 0.04 | 67 | 1012.2 |
| 20260902153045 | 76 | 69 | 1.7 | 4.3 | 0.00 | 0.04 | 0.04 | 68 | 1012.1 |
| 20260902151546 | 75 | 66 | 2.6 | 5.2 | 0.00 | 0.04 | 0.04 | 71 | 1012.1 |
| 20260902150037 | 74 | 178 | 3.5 | 6.1 | 0.00 | 0.04 | 0.04 | 71 | 1012.1 |
| 20260902144537 | 73 | 13 | 1.7 | 5.2 | 0.00 | 0.04 | 0.04 | 72 | 1012.1 |
| 20260902143033 | 72 | 156 | 1.7 | 3.5 | 0.00 | 0.04 | 0.04 | 74 | 1012.4 |
| 20260902141526 | 72 | 124 | 1.7 | 4.3 | 0.00 | 0.04 | 0.04 | 75 | 1012.5 |
| 20260902140022 | 70 | 207 | 0.9 | 5.2 | 0.00 | 0.04 | 0.04 | 77 | 1012.6 |
| 20260902134518 | 69 | 74 | 0.9 | 7.0 | 0.00 | 0.04 | 0.04 | 80 | 1012.4 |
| 20260902133017 | 69 | 48 | 2.6 | 4.3 | 0.00 | 0.04 | 0.04 | 79 | 1012.4 |
| 20260902131515 | 69 | 26 | 2.6 | 5.2 | 0.00 | 0.04 | 0.04 | 79 | 1012.5 |
| 20260902130013 | 68 | 72 | 0.9 | 4.3 | 0.00 | 0.04 | 0.04 | 82 | 1012.2 |
| 20260902124511 | 67 | 24 | 0.0 | 3.5 | 0.00 | 0.04 | 0.04 | 85 | 1012.4 |
| 20260902123009 | 66 | 30 | 0.9 | 3.5 | 0.00 | 0.04 | 0.04 | 86 | 1012.4 |
| 20260902121506 | 66 | 32 | 1.7 | 3.5 | 0.00 | 0.04 | 0.04 | 87 | 1012.1 |
| 20260902120005 | 66 | 61 | 0.9 | 3.5 | 0.00 | 0.04 | 0.04 | 87 | 1012.4 |
| 20260902114502 | 65 | 130 | 0.0 | 1.7 | 0.00 | 0.04 | 0.04 | 87 | 1012.4 |
| 20260902113001 | 66 | 130 | 0.0 | 2.6 | 0.00 | 0.04 | 0.04 | 86 | 1012.3 |
| 20260902111500 | 66 | 136 | 1.7 | 7.0 | 0.00 | 0.04 | 0.04 | 86 | 1012.9 |
| 20260902110107 | 66 | 140 | 0.0 | 2.6 | 0.00 | 0.04 | 0.04 | 85 | 1013.0 |
| 20260902104558 | 66 | 155 | 0.9 | 1.7 | 0.00 | 0.04 | 0.04 | 84 | 1012.9 |
| 20260902103057 | 66 | 157 | 0.9 | 2.6 | 0.00 | 0.04 | 0.04 | 84 | 1013.1 |
| 20260902101557 | 66 | 157 | 0.0 | 4.3 | 0.00 | 0.04 | 0.04 | 84 | 1013.2 |
| 20260902100109 | 66 | 86 | 0.9 | 2.6 | 0.00 | 0.04 | 0.04 | 83 | 1013.0 |
| 20260902094612 | 66 | 85 | 0.9 | 2.6 | 0.00 | 0.04 | 0.04 | 82 | 1012.4 |
| 20260902093055 | 66 | 162 | 2.6 | 6.1 | 0.00 | 0.04 | 0.04 | 82 | 1012.0 |
| 20260902091600 | 66 | 163 | 5.2 | 8.7 | 0.00 | 0.04 | 0.04 | 83 | 1012.0 |
| 20260902090052 | 67 | 170 | 5.2 | 8.7 | 0.00 | 0.04 | 0.04 | 81 | 1011.5 |
| 20260902084551 | 67 | 65 | 4.3 | 9.6 | 0.00 | 0.04 | 0.04 | 79 | 1010.5 |
| 20260902083054 | 67 | 360 | 4.3 | 10.4 | 0.00 | 0.04 | 0.04 | 79 | 1010.7 |
| 20260902081546 | 67 | 65 | 2.6 | 7.0 | 0.01 | 0.04 | 0.04 | 82 | 1011.3 |
| 20260902080057 | 66 | 123 | 1.7 | 5.2 | 0.03 | 0.04 | 0.04 | 83 | 1012.0 |
| 20260902074543 | 66 | 105 | 0.9 | 6.1 | 0.04 | 0.04 | 0.04 | 80 | 1012.3 |
| 20260902073042 | 67 | 159 | 2.6 | 7.0 | 0.04 | 0.04 | 0.04 | 80 | 1011.7 |
| 20260902071538 | 68 | 86 | 2.6 | 7.0 | 0.03 | 0.03 | 0.03 | 80 | 1011.8 |
| 20260902070034 | 69 | 144 | 3.5 | 11.3 | 0.01 | 0.01 | 0.01 | 81 | 1012.9 |
| 20260902064532 | 71 | 195 | 7.0 | 13.0 | 0.00 | 0.00 | 0.00 | 79 | 1014.2 |
| 20260902063036 | 71 | 152 | 12.2 | 18.2 | 0.00 | 0.00 | 0.00 | 80 | 1014.8 |
| 20260902061542 | 73 | 28 | 0.9 | 2.6 | 0.00 | 0.00 | 0.00 | 70 | 1013.9 |
| 20260902060024 | 73 | 28 | 0.9 | 2.6 | 0.00 | 0.00 | 0.00 | 70 | 1012.9 |
| 20260902054523 | 72 | 28 | 1.7 | 3.5 | 0.00 | 0.00 | 0.00 | 73 | 1012.0 |
| 20260902053023 | 73 | 44 | 0.9 | 1.7 | 0.00 | 0.00 | 0.00 | 73 | 1012.3 |
| 20260902051517 | 73 | 111 | 0.9 | 1.7 | 0.00 | 0.00 | 0.00 | 71 | 1012.8 |
| 20260902050014 | 74 | 60 | 0.0 | 0.9 | 0.00 | 0.00 | 0.00 | 70 | 1013.5 |
| 20260902044513 | 74 | 60 | 0.9 | 1.7 | 0.00 | 0.00 | 0.00 | 67 | 1012.5 |
| 20260902043012 | 74 | 103 | 0.9 | 2.6 | 0.00 | 0.00 | 0.00 | 67 | 1012.4 |
| 20260902041512 | 75 | 129 | 0.0 | 2.6 | 0.00 | 0.00 | 0.00 | 66 | 1012.1 |
| 20260902040013 | 75 | 227 | 0.0 | 0.9 | 0.00 | 0.00 | 0.00 | 68 | 1012.3 |
| 20260902034512 | 76 | 227 | 0.0 | 1.7 | 0.00 | 0.00 | 0.00 | 68 | 1012.1 |
| 20260902033022 | 76 | 229 | 0.9 | 2.6 | 0.00 | 0.00 | 0.00 | 67 | 1012.7 |
| 20260902031509 | 76 | 294 | 0.0 | 0.9 | 0.00 | 0.00 | 0.00 | 67 | 1012.9 |
| 20260902030009 | 76 | 294 | 0.0 | 0.9 | 0.00 | 0.00 | 0.00 | 66 | 1012.9 |
| 20260902024509 | 76 | 294 | 0.0 | 0.9 | 0.00 | 0.00 | 0.00 | 66 | 1012.7 |
| 20260902023008 | 77 | 294 | 0.0 | 0.9 | 0.00 | 0.00 | 0.00 | 66 | 1012.7 |